Zurück zum Katalog

DELTA 1 DEB

AktivSSO
NORAD 7148·DEBRIS·🇺🇸 United States

Gestartet Nov 6, 1973 von Vandenberg Space Force Base

Loading…

Nächste Überflüge (nächste 24 Stunden)

TLE

AktuellSource: Space-Track

Epoche: Sep 14, 2026, 12:12 UTC

1 07148U 73086DN  26257.50876690  .00000221  00000-0  22977-2 0  9991
2 07148 102.0458 280.8328 0127199 131.0699  33.2949 12.26115424364541

Verfolge DELTA 1 DEB in Echtzeit mit AllMySat

Download on the App Store